FW2073 Weather Reports


time (UTC)temp
C
wind
direction
speed
KPH
gust
KPH
rain 1hr
cm
rain 24hr
cm
rain mn
cm
humidity
%
barometer
mb
20260504174539 10 332 0.0 0.0 0.00 0.20 0.20 88 1006.6
20260504173036 10 261 0.0 0.0 0.00 0.20 0.20 90 1006.7
20260504171536 10 274 0.0 0.0 0.00 0.20 0.20 90 1006.8
20260504081543 0 271 0.0 0.0 0.00 0.00 0.00 93 1008.0
20260504050001 -2 87 0.0 0.0 0.00 0.00 0.00 94 1008.1
20260504044600 -2 87 0.0 0.0 0.00 0.00 0.00 94 1008.2
20260504043115 -2 87 0.0 0.0 0.00 0.00 0.00 93 1008.2
20260504041528 -2 96 0.0 0.0 0.00 0.00 0.00 93 1008.2
20260504040027 -2 113 0.0 0.0 0.00 0.00 0.00 93 1008.1
20260504034531 -2 101 0.0 0.0 0.00 0.00 0.00 92 1008.2
20260504033036 -1 89 0.0 0.0 0.00 0.00 0.00 92 1008.2
20260504031528 -2 84 0.0 0.0 0.00 0.00 0.00 93 1008.2
20260504030021 -1 93 0.0 0.0 0.00 0.00 0.00 93 1008.2
20260504024538 -1 102 0.0 0.0 0.00 0.00 0.00 92 1008.2
20260504023017 -1 96 0.0 0.0 0.00 0.00 0.00 92 1008.3
20260504021514 -1 78 0.0 0.0 0.00 0.00 0.00 92 1008.4
20260504020015 -1 82 0.0 0.0 0.00 0.00 0.00 91 1008.3
20260504014510 0 106 0.0 0.0 0.00 0.00 0.00 90 1008.2
20260504013012 0 96 0.0 0.0 0.00 0.00 0.00 89 1008.3
20260504011505 0 94 0.0 0.0 0.00 0.00 0.00 87 1008.1
20260504010002 0 103 0.0 0.0 0.00 0.00 0.00 86 1008.0
20260504004622 1 108 0.0 0.0 0.00 0.00 0.00 84 1007.9
20260504003100 1 111 0.0 0.0 0.00 0.00 0.00 82 1007.7
20260504001549 2 105 0.0 0.0 0.00 0.00 0.00 79 1007.6
20260504000050 3 93 0.0 0.0 0.00 0.00 0.00 76 1007.5
20260503234547 5 90 0.0 0.0 0.00 0.00 0.00 71 1007.3
20260503233017 6 79 0.0 3.2 0.00 0.00 0.00 62 1007.2
20260503231516 7 100 0.0 0.0 0.00 0.00 0.00 59 1007.2
20260503230013 7 114 0.0 4.8 0.00 0.00 0.00 58 1007.2
20260503224513 7 97 0.0 8.0 0.00 0.00 0.00 58 1007.1
20260503223012 7 122 0.0 0.0 0.00 0.00 0.00 60 1007.2
20260503221511 7 57 0.0 3.2 0.00 0.00 0.00 60 1007.2
20260503220007 7 122 0.0 1.6 0.00 0.00 0.00 60 1007.1
20260503214507 7 100 0.0 3.2 0.00 0.00 0.00 61 1007.2
20260503213013 7 120 0.0 9.7 0.00 0.03 0.00 61 1007.2
20260503211504 7 108 0.0 12.9 0.00 0.03 0.00 61 1007.2
20260503210003 6 101 0.0 16.1 0.00 0.03 0.00 61 1007.1
20260503204501 7 148 1.6 11.3 0.00 0.03 0.00 59 1007.1
20260503203003 7 94 1.6 9.7 0.00 0.03 0.00 64 1007.0
20260503201559 6 145 0.0 14.5 0.00 0.03 0.00 65 1007.1
20260503200057 6 105 0.0 14.5 0.00 0.03 0.00 67 1007.1
20260503194556 5 104 0.0 0.0 0.00 0.03 0.00 73 1007.4
20260503193058 6 105 1.6 24.1 0.00 0.05 0.00 70 1007.9
20260503191555 7 105 0.0 9.7 0.00 0.05 0.00 62 1007.4
20260503190057 7 68 0.0 22.5 0.00 0.05 0.00 62 1007.3
20260503184603 7 103 1.6 16.1 0.00 0.05 0.00 57 1007.4
20260503183052 7 129 0.0 16.1 0.00 0.05 0.00 57 1007.5
20260503181552 6 132 0.0 27.4 0.00 0.05 0.00 56 1007.6
20260503180047 6 108 4.8 25.7 0.00 0.05 0.00 57 1007.7